星链-31036 (STARLINK-31036 )

导读 | 豆包AI

STARLINK-31036是美国SpaceX星链星座中的一颗卫星,于2023年12月8日发射升空。星链项目旨在构建全球卫星互联网通信系统,为全球用户提供覆盖偏远地区的高速网络服务,该卫星加入星座后,进一步扩大了星链网络的覆盖范围与服务能力。

基本信息
目录编号:
58533
目录名称:
STARLINK-31036
国际标识:
2023-192C
轨道中心:
EARTH
卫星名称:
星链-31036
卫星全名:
星链-31036 (STARLINK-31036 )
卫星状态:
在轨 (已飞行874 天)
发射日期:
2023-12-08 UTC
国别 :
美国 (US)
星等 :
--
轨道信息
数据来源 国际轨道数据
星历时间: 2026-04-30T21:06:45+0800
8小时前
查看轨道信息
半长轴: 6840.857km
偏心率: 0.0001066
轨道倾角: 53.161°
近地点辐角 80.671°
升交点赤经 181.987°
平近点角 279.441°
近地点: 461.99km
远地点: 463.45km
周期: 93.848分钟
每日圈数: 15.343945
详细信息
固有亮度:
5
最大亮度:
0.3
卫星平台:
Starlink v2.0 mini
覆盖范围:
全球
运营商:
太空探索技术公司
运营商所在国:
美国
制造商(研发单位):
太空探索技术公司
制造商所在国:
美国
使用方式:
暂无
卫星简介
星链(Starlink)计划是由太空探索技术公司(SpaceX)提出的一个巨型低轨卫星互联网星座项目,计划在2019年至2024年间在太空搭建由约1.2万颗卫星组成的“星链”网络,其中1584颗将部署在地球上空550千米处的近地轨道,并从2020年开始工作。该卫星仍在工作。
2D轨道图
3D轨道图
轨道高度分析图
轨道倾角分析图
轨道综合分析图
查看轨道综合分析图